Location: ?kun?ru
(16.3916°N, 80.8194°E)
Time: 15:33:14
(UTC+00:00)

CZ-4 R/B - Pass Details

Date: 19 May 2025
Orbit: 676 x 744 km, 98.7° (Epoch: 17 June)

Event Time Altitude Azimuth Distance (km) Brightness Sun altitude
Rises 22:32:27 0° 17° (NNE) 3,099 7.9 -20.9°
Reaches altitude 10° 22:34:43 10° 20° (NNE) 2,189 7.0 -20.5°
Maximum altitude 22:39:29 64° 102° (ESE) 800 4.2 -19.5°
Enters shadow 22:43:55 12° 182° (S) 2,066 5.9 -18.5°
